Location: Newark
(49.8753°N, 23.0797°E)
Time: 02:17:17
(UTC+00:00)

ISS - Pass Details

Date: 30 June 2021
Orbit: 419 x 421 km, 51.6° (Epoch: 02 August)

Event Time Altitude Azimuth Distance (km) Brightness Sun altitude
Exits shadow 01:31:57 - 208° (SSW) 1,616 -1.4 -6.7°
Reaches altitude 10° 01:32:17 10° 206° (SSW) 1,496 -1.6 -6.7°
Maximum altitude 01:35:12 28° 145° (SE) 828 -2.4 -6.4°
Drops below altitude 10° 01:38:07 10° 85° (E) 1,503 -0.2 -6.1°
Sets 01:40:24 0° 73° (ENE) 2,370 1.2 -5.8°
